Location: ??????
(38.1303°N, 24.0039°E)
Time: 09:00:35
(UTC+00:00)

Cosmos 1656 Rocket - Pass Details

Date: 20 June 2021
Orbit: 794 x 847 km, 71.1° (Epoch: 30 July)

Event Time Altitude Azimuth Distance (km) Brightness Sun altitude
Rises 00:21:53 0° 331° (NNW) 3,415 7.3 -22.7°
Reaches altitude 10° 00:24:25 10° 325° (NW) 2,475 6.4 -22.4°
Maximum altitude 00:29:48 45° 254° (WSW) 1,130 4.0 -21.9°
Enters shadow 00:30:24 44° 236° (SW) 1,154 4.0 -21.8°
